Location: Eaglesham
(55.7833°N, 117.9000°W)
Time: 05:44:18
(UTC+00:00)

ISS - Visible Passes

Search period start: 28 November 2021 00:00
Search period end: 08 December 2021 00:00
Orbit: 417 x 423 km, 51.6° (Epoch: 28 November)

Date Brightness Start Highest point End Pass type
(mag) Time Alt. Az. Time Alt. Az. Time Alt. Az.
28 Nov -2.7 01:22:56 10° WSW 01:26:07 37° S 01:27:25 26° ESE visible
28 Nov -0.9 02:59:25 10° W 03:00:24 17° WSW 03:00:24 17° WSW visible
29 Nov -2.4 00:35:57 10° SW 00:39:03 33° SSE 00:42:07 10° E visible
29 Nov -2.6 02:12:17 10° WSW 02:15:06 38° SSW 02:15:06 38° SSW visible
30 Nov -2.8 01:25:11 10° WSW 01:28:25 41° S 01:29:49 26° SE visible
30 Nov -0.7 03:01:53 10° W 03:02:47 16° WSW 03:02:47 16° WSW visible
01 Dec -2.7 00:38:05 10° WSW 00:41:19 40° S 00:44:32 10° ESE visible
01 Dec -2.2 02:14:41 10° W 02:17:31 31° SSW 02:17:31 31° SSW visible
02 Dec -2.5 01:27:29 10° W 01:30:40 36° S 01:32:18 22° SE visible
02 Dec -0.6 03:04:36 10° WSW 03:05:17 13° WSW 03:05:17 13° WSW visible
03 Dec -2.5 00:40:19 10° WSW 00:43:32 40° S 00:46:45 10° ESE visible
03 Dec -1.7 02:17:11 10° WSW 02:19:52 22° SSW 02:20:07 21° SSW visible
04 Dec -1.8 01:29:52 10° W 01:32:46 27° SSW 01:35:03 14° SSE visible
05 Dec -2.0 00:42:35 10° W 00:45:40 32° SSW 00:48:43 10° SE visible
05 Dec -0.8 02:20:11 10° WSW 02:21:46 13° SW 02:23:07 11° S visible
06 Dec -1.0 01:32:28 10° WSW 01:34:44 17° SSW 01:37:00 10° SSE visible
07 Dec -1.2 00:44:58 10° WSW 00:47:38 21° SSW 00:50:18 10° SSE visible
